Terminal Aerodrome Forecast
Issued by NWS La Crosse, WI

Home | Current Version | Previous Version | Text Only | Print | Product List | Glossary On
Versions: 1 2 3 4 5 6 7 8 9 10 11 12 13 14 15 16 17 18 19 20 21 22 23 24 25 26 27 28 29 30 31 32 33 34 35 36 37 38
000
FTUS43 KARX 300525
TAFLSE
TAF
KLSE 300525Z 3006/3106 27006KT P6SM SCT150
     FM301400 28008KT P6SM BKN100
     FM301800 22012KT P6SM VCSH BKN050
     FM310100 30007KT P6SM BKN050=

USA.gov is the U.S. government's official web portal to all federal, state and local government web resources and services.